Location: Waco, TX
(31.5480°N, 97.1670°W)
Time: 23:33:01
(UTC-06:00)

ISS - Pass Details

Date: 13 November 2018
Orbit: 402 x 408 km, 51.6° (Epoch: 17 November)

Event Time Altitude Azimuth Distance (km) Brightness Sun altitude
Rises 05:42:45 0° 328° (NNW) 2,319 - -15.6°
Reaches altitude 10° 05:45:08 10° 344° (NNW) 1,459 - -15.1°
Exits shadow 05:45:21 11° 346° (NNW) 1,386 -1.4 -15.0°
Maximum altitude 05:47:46 22° 38° (NE) 935 -1.7 -14.5°
Drops below altitude 10° 05:50:24 10° 92° (E) 1,457 0.3 -14.0°
Sets 05:52:46 0° 108° (ESE) 2,315 2.0 -13.5°
